ONEWEB-0044 (45150 NORAD) Tracking and Keplerian Element Data

This shows tracking and keplerian element data for the satellite.

Feedback or suggestion? Click here.




ElementValue
Catalog45150
NameONEWEB-0044
Epoch Orbit842
Epoch Day87.94485508
Epoch Year2020
RAAN147.165
Inclination87.4978
Eccentricity0.0020342
Argument of Perigee118.1881
Mean Anonmoly242.1416
Mean Motion15.10466005
Decay Rate-0.00024589
L11 45150U 20008V 20087.94485508 -.00024589 00000-0 -14969-2 0 9996
L22 45150 87.4978 147.1650 0020342 118.1881 242.1416 15.10466005 8425

Live tracking and technical data element details for ONEWEB-0044 (NORAD 45150). ONEWEB-0044 can be tracked NOW for your location showing map with azimuth and elevation plus other details from your city location.

Track the satellite on the map from your city or location and see movement details for azimuth, elevation, latitude, longitude, range, height, and movement on the map or in text.







IsCatalogInMostPopularTable: catalog: 45150, numindb: 11
Update: records affected: 1



GetName: 45150 ONEWEB-0044

Hit Count: updated at: Tue, 31 Mar 2020 13:03:04 GMT